GW3775 Weather Reports


Display with metric or nautical units.
time (UTC)temp
F
wind
direction
speed
MPH
gust
MPH
rain 1hr
in
rain 24hr
in
rain mn
in
humidity
%
barometer
mb
20260510173056 64 216 8.0 17.0 0.00 0.00 0.00 65 1014.1
20260510172548 65 192 9.0 12.0 0.00 0.00 0.00 65 1014.2
20260510172050 65 199 8.0 11.0 0.00 0.00 0.00 62 1014.2
20260510171558 66 189 5.0 11.0 0.00 0.00 0.00 60 1014.3
20260510171052 67 171 4.0 11.0 0.00 0.00 0.00 58 1014.2
20260510170548 68 132 6.0 11.0 0.00 0.00 0.00 57 1014.0
20260510170054 68 112 5.0 13.0 0.00 0.00 0.00 57 1013.9
20260510165549 68 111 6.0 14.0 0.00 0.03 0.00 56 1013.7
20260510165048 68 120 6.0 14.0 0.00 0.03 0.00 57 1013.7
20260510164601 68 145 6.0 14.0 0.00 0.03 0.00 56 1013.7
20260510164049 68 128 6.0 10.0 0.00 0.03 0.00 57 1013.7
20260510163551 68 141 4.0 10.0 0.00 0.03 0.00 57 1013.8
20260510163050 68 138 2.0 8.0 0.00 0.03 0.00 58 1013.8
20260510162548 68 101 3.0 11.0 0.00 0.03 0.00 58 1013.8
20260510162049 68 119 4.0 13.0 0.00 0.03 0.00 58 1013.9
20260510161550 68 124 7.0 13.0 0.00 0.03 0.00 57 1013.9
20260510161050 68 90 5.0 10.0 0.00 0.03 0.00 59 1013.7
20260510160550 68 143 3.0 10.0 0.00 0.03 0.00 60 1013.7
20260510160056 68 159 4.0 10.0 0.00 0.03 0.00 59 1013.6
20260510155549 68 134 6.0 10.0 0.00 0.03 0.00 61 1013.8
20260510155050 68 160 3.0 6.0 0.00 0.03 0.00 61 1013.9
20260510154600 68 0 1.0 14.0 0.00 0.03 0.00 60 1013.8
20260510154049 68 52 2.0 14.0 0.00 0.03 0.00 60 1013.8
20260510153552 68 34 4.0 10.0 0.00 0.03 0.00 59 1014.0
20260510153055 68 71 5.0 11.0 0.00 0.03 0.00 59 1013.8
20260510153040 68 76 4.0 13.0 0.00 0.03 0.00 59 1013.9
20260510151050 68 137 7.0 16.0 0.00 0.03 0.00 60 1014.0
20260510150553 68 90 5.0 12.0 0.00 0.03 0.00 58 1014.1
20260510150123 68 114 5.0 11.0 0.00 0.03 0.00 59 1014.0
20260510145550 68 124 6.0 11.0 0.00 0.03 0.00 58 1014.0
20260510145050 68 129 7.0 13.0 0.00 0.03 0.00 58 1014.1
20260510144557 69 98 4.0 13.0 0.00 0.03 0.00 58 1014.2
20260510144050 69 60 8.0 13.0 0.00 0.03 0.00 58 1014.2
20260510143553 69 76 6.0 12.0 0.00 0.03 0.00 57 1014.2
20260510143101 69 76 5.0 11.0 0.00 0.03 0.00 57 1014.2
20260510142550 69 53 5.0 14.0 0.00 0.03 0.00 57 1014.2
20260510142050 69 135 5.0 16.0 0.00 0.03 0.00 56 1014.0
20260510141600 69 32 7.0 16.0 0.00 0.03 0.00 57 1014.2
20260510141051 69 44 8.0 13.0 0.00 0.03 0.00 56 1014.6
20260510140549 69 119 5.0 13.0 0.00 0.03 0.00 49 1014.3
20260510140050 69 118 6.0 13.0 0.00 0.03 0.00 50 1014.5
20260510135549 69 98 6.0 13.0 0.00 0.03 0.00 51 1014.5
20260510135050 69 96 6.0 13.0 0.00 0.03 0.00 50 1014.5
20260510134557 69 189 5.0 13.0 0.00 0.03 0.00 50 1014.6
20260510134051 69 108 7.0 17.0 0.00 0.03 0.00 48 1014.6
20260510133552 69 153 8.0 17.0 0.00 0.03 0.00 49 1014.6
20260510133058 69 116 6.0 17.0 0.00 0.03 0.00 50 1014.8
20260510132550 69 108 6.0 14.0 0.00 0.03 0.00 50 1014.6
20260510132051 70 98 6.0 11.0 0.00 0.03 0.00 48 1014.6
20260510131559 70 57 3.0 11.0 0.00 0.03 0.00 50 1015.0
20260510131050 70 116 4.0 14.0 0.00 0.03 0.00 50 1014.9
20260510130550 69 128 5.0 14.0 0.00 0.03 0.00 49 1015.1
20260510130056 69 63 8.0 14.0 0.00 0.03 0.00 47 1015.1
20260510125549 69 121 6.0 14.0 0.00 0.03 0.00 50 1015.3
20260510125049 69 72 7.0 13.0 0.00 0.03 0.00 49 1015.3
20260510124602 69 137 8.0 13.0 0.00 0.03 0.00 46 1015.4
20260510124050 70 121 5.0 12.0 0.00 0.03 0.00 49 1015.4
20260510123550 70 140 7.0 13.0 0.00 0.03 0.00 50 1015.7
20260510123051 70 111 7.0 13.0 0.00 0.03 0.00 49 1015.5
20260510122554 69 130 5.0 16.0 0.00 0.03 0.00 51 1015.7
20260510122050 69 133 7.0 16.0 0.00 0.03 0.00 50 1015.9
20260510121558 68 140 5.0 10.0 0.00 0.03 0.00 52 1015.8
20260510121050 68 145 5.0 10.0 0.00 0.03 0.00 49 1015.9
20260510120553 68 133 4.0 12.0 0.00 0.03 0.00 51 1016.0
20260510120058 67 135 4.0 12.0 0.00 0.03 0.00 50 1015.9
20260510115621 68 104 5.0 14.0 0.00 0.05 0.00 49 1016.1
20260510114555 68 82 5.0 12.0 0.00 0.05 0.00 48 1016.2
20260510114049 69 65 5.0 12.0 0.00 0.05 0.00 47 1016.1
20260510113549 69 76 7.0 14.0 0.00 0.05 0.00 49 1016.2
20260510113054 69 111 5.0 14.0 0.00 0.05 0.00 50 1016.3
20260510112552 69 70 6.0 13.0 0.00 0.05 0.00 48 1016.4
20260510112050 69 130 3.0 12.0 0.00 0.05 0.00 49 1016.4
20260510111603 68 80 6.0 12.0 0.00 0.05 0.00 48 1016.5
20260510111049 68 45 5.0 11.0 0.00 0.05 0.00 50 1016.5
20260510110549 68 37 4.0 11.0 0.00 0.05 0.00 52 1016.7
20260510110057 67 104 7.0 11.0 0.00 0.05 0.00 52 1016.7
20260510105551 67 146 4.0 10.0 0.00 0.16 0.00 52 1016.6
20260510105500 68 122 6.0 11.0 0.00 0.16 0.00 51 1016.8
20260510104553 67 161 6.0 11.0 0.00 0.16 0.00 55 1016.6
20260510104053 67 80 3.0 10.0 0.00 0.16 0.00 52 1016.8
20260510103550 67 121 4.0 10.0 0.00 0.16 0.00 53 1016.8
20260510103103 66 112 5.0 10.0 0.00 0.16 0.00 53 1016.9
20260510102550 66 145 4.0 10.0 0.00 0.16 0.00 53 1016.8
20260510102054 66 140 5.0 10.0 0.00 0.16 0.00 53 1016.8
20260510101559 66 149 4.0 11.0 0.00 0.16 0.00 54 1017.0
20260510101049 66 120 5.0 11.0 0.00 0.16 0.00 55 1017.0
20260510101001 66 133 5.0 11.0 0.00 0.16 0.00 52 1017.1
20260510094614 66 125 3.0 9.0 0.00 0.16 0.00 60 1017.1
20260510092548 64 131 2.0 7.0 0.00 0.16 0.00 63 1017.2
20260510092049 64 130 1.0 7.0 0.00 0.16 0.00 64 1017.2
20260510091550 63 125 2.0 10.0 0.00 0.16 0.00 63 1017.3
20260510091048 63 100 6.0 10.0 0.00 0.16 0.00 65 1017.3
20260510090548 63 50 3.0 8.0 0.00 0.16 0.00 65 1017.3
20260510090051 62 107 4.0 8.0 0.00 0.16 0.00 66 1017.4
20260510085551 62 125 4.0 8.0 0.00 0.16 0.00 65 1017.5
20260510085049 62 123 2.0 8.0 0.00 0.16 0.00 65 1017.3
20260510084549 62 93 3.0 8.0 0.00 0.16 0.00 65 1017.4
20260510084052 62 127 2.0 6.0 0.00 0.16 0.00 67 1017.3
20260510083549 62 64 3.0 6.0 0.00 0.16 0.00 68 1017.4
20260510083104 62 117 1.0 4.0 0.00 0.16 0.00 69 1017.5
20260510082549 61 88 1.0 6.0 0.00 0.16 0.00 71 1017.3
20260510082050 61 85 2.0 6.0 0.00 0.16 0.00 71 1017.4
20260510081555 61 71 1.0 6.0 0.00 0.16 0.00 73 1017.4
20260510081050 60 89 3.0 10.0 0.00 0.16 0.00 72 1017.6
20260510080552 60 92 4.0 10.0 0.00 0.16 0.00 71 1017.5
20260510080048 60 64 1.0 6.0 0.00 0.16 0.00 72 1017.6
20260510075550 60 107 3.0 6.0 0.00 0.17 0.00 72 1017.5
20260510075048 60 53 1.0 4.0 0.00 0.17 0.00 73 1017.5
20260510074602 60 87 0.0 1.0 0.00 0.17 0.00 72 1017.4
20260510074047 61 87 0.0 1.0 0.00 0.17 0.00 71 1017.5
20260510073707 60 0 0.0 1.0 0.00 0.17 0.00 75 1017.6
20260510072549 60 0 0.0 2.0 0.00 0.17 0.00 75 1017.6
20260510072051 59 0 0.0 2.0 0.00 0.17 0.00 77 1017.7
20260510071550 59 87 0.0 2.0 0.00 0.17 0.00 79 1017.6
20260510071048 58 0 0.0 0.0 0.00 0.17 0.00 83 1017.4
20260510070548 57 0 0.0 0.0 0.00 0.17 0.00 87 1017.3
20260510070053 56 0 0.0 1.0 0.00 0.17 0.00 90 1017.3
20260510065554 55 0 0.0 2.0 0.00 0.17 0.00 92 1017.4
20260510065059 54 0 0.0 4.0 0.00 0.17 0.00 94 1017.3
20260510065056 54 87 1.0 4.0 0.00 0.17 0.00 94 1017.2
20260510062551 51 130 1.0 1.0 0.00 0.17 0.00 96 1016.9
20260510062049 50 129 0.0 1.0 0.00 0.17 0.00 96 1017.1
20260510061555 50 0 0.0 1.0 0.00 0.17 0.00 96 1016.9
20260510061050 49 0 0.0 1.0 0.00 0.17 0.00 96 1017.1
20260510060553 49 128 0.0 1.0 0.00 0.17 0.00 96 1017.0
20260510060052 48 0 0.0 0.0 0.00 0.17 0.00 96 1016.9
20260510055550 48 0 0.0 0.0 0.00 0.17 0.00 96 1016.7
20260510055048 48 0 0.0 1.0 0.00 0.17 0.00 96 1016.7
20260510054551 47 0 0.0 1.0 0.00 0.17 0.00 96 1016.7
20260510054048 47 0 0.0 1.0 0.00 0.17 0.00 96 1016.8
20260510053548 47 0 0.0 1.0 0.00 0.17 0.00 96 1016.8
20260510053052 47 0 0.0 1.0 0.00 0.17 0.00 96 1016.8
20260510052552 47 0 0.0 1.0 0.00 0.17 0.00 96 1016.6
20260510052048 47 0 0.0 1.0 0.00 0.17 0.00 96 1016.7
20260510051602 47 127 0.0 1.0 0.00 0.17 0.00 96 1016.4
20260510051051 47 0 0.0 2.0 0.00 0.17 0.00 96 1016.6
20260510050547 48 133 1.0 2.0 0.00 0.17 0.00 96 1016.5
20260510050050 48 133 0.0 2.0 0.00 0.17 0.00 96 1016.4
20260510045550 48 130 1.0 3.0 0.00 0.17 0.00 96 1016.5
20260510045050 47 130 1.0 3.0 0.00 0.17 0.00 96 1016.5
20260510044601 47 129 2.0 3.0 0.00 0.17 0.00 96 1016.4
20260510044049 47 131 0.0 2.0 0.00 0.17 0.00 96 1016.4
20260510043549 47 131 0.0 1.0 0.00 0.17 0.00 96 1016.3
20260510043051 47 0 0.0 4.0 0.00 0.17 0.00 96 1016.2
20260510042553 47 131 1.0 4.0 0.00 0.17 0.00 96 1016.3
20260510042049 47 149 1.0 4.0 0.00 0.17 0.00 96 1016.3
20260510041551 46 132 1.0 5.0 0.00 0.17 0.00 96 1016.2
20260510041049 46 133 2.0 5.0 0.00 0.17 0.00 96 1016.2
20260510040552 46 131 1.0 2.0 0.00 0.17 0.00 95 1016.2
20260510040056 46 139 0.0 2.0 0.00 0.17 0.00 95 1016.1
20260510035552 46 139 0.0 2.0 0.00 0.17 0.00 95 1016.3
20260510035052 46 139 1.0 2.0 0.00 0.17 0.00 95 1016.3
20260510034553 46 152 0.0 2.0 0.00 0.17 0.00 95 1016.3
20260510034118 46 143 0.0 2.0 0.00 0.17 0.00 95 1016.3
20260510032549 46 147 0.0 1.0 0.00 0.17 0.00 95 1016.2
20260510032048 46 0 0.0 1.0 0.00 0.17 0.00 95 1016.3
20260510031554 46 0 0.0 2.0 0.00 0.17 0.00 95 1016.2
20260510031049 46 147 0.0 2.0 0.00 0.17 0.00 95 1016.3
20260510030548 47 147 0.0 2.0 0.00 0.17 0.00 95 1016.2
20260510025548 47 147 1.0 2.0 0.00 0.17 0.00 95 1016.2
20260510025049 47 147 1.0 2.0 0.00 0.17 0.00 95 1016.3
20260510024556 47 147 0.0 2.0 0.00 0.17 0.00 95 1016.4
20260510024048 47 147 1.0 2.0 0.00 0.17 0.00 95 1016.2
20260510023548 46 147 0.0 1.0 0.00 0.17 0.00 95 1016.2
20260510023053 46 147 1.0 2.0 0.00 0.17 0.00 95 1016.1
20260510022549 46 0 1.0 2.0 0.00 0.17 0.00 95 1016.1
20260510022050 46 147 1.0 2.0 0.00 0.17 0.00 95 1016.2
20260510021600 46 147 1.0 2.0 0.00 0.17 0.00 95 1016.3
20260510021051 46 216 1.0 2.0 0.00 0.17 0.00 94 1016.4
20260510020549 46 216 0.0 2.0 0.00 0.17 0.00 94 1016.3
20260510020053 46 0 0.0 0.0 0.00 0.17 0.00 95 1016.0
20260510015550 46 0 0.0 1.0 0.00 0.17 0.00 95 1016.3
20260510015050 46 0 0.0 1.0 0.00 0.17 0.00 94 1016.3
20260510014559 46 0 0.0 2.0 0.00 0.17 0.00 94 1016.3
20260510014109 46 0 0.0 2.0 0.00 0.17 0.00 94 1016.2
20260510012552 47 0 0.0 1.0 0.00 0.17 0.00 95 1016.4
20260510012052 47 216 0.0 1.0 0.00 0.17 0.00 94 1016.5
20260510011552 47 216 0.0 1.0 0.00 0.17 0.00 94 1016.5
20260510011047 47 216 0.0 0.0 0.00 0.16 0.00 94 1016.7
20260510010549 47 0 0.0 0.0 0.00 0.16 0.00 94 1016.5
20260510010055 47 0 0.0 1.0 0.00 0.16 0.00 94 1016.5
20260510005551 47 0 0.0 1.0 0.00 0.16 0.00 93 1016.6
20260510005049 48 216 0.0 1.0 0.00 0.16 0.00 93 1016.6
20260510004552 48 216 0.0 1.0 0.00 0.16 0.00 94 1016.7
20260510004048 48 216 0.0 1.0 0.00 0.16 0.00 94 1016.7
20260510003548 49 0 0.0 1.0 0.00 0.16 0.00 94 1016.7
20260510003051 49 216 0.0 0.0 0.00 0.16 0.00 93 1016.7
20260510002548 49 0 0.0 1.0 0.00 0.16 0.00 94 1016.9
20260510002048 49 0 0.0 1.0 0.00 0.16 0.00 93 1016.9
20260510001550 49 0 0.0 0.0 0.00 0.16 0.00 93 1017.0
20260510001049 50 0 0.0 1.0 0.00 0.16 0.00 93 1016.9
20260510000548 50 0 0.0 2.0 0.00 0.16 0.00 94 1017.1
20260510000053 50 216 1.0 2.0 0.00 0.16 0.00 94 1017.1
20260509235550 50 216 0.0 2.0 0.00 0.16 0.00 94 1017.2
20260509235048 50 319 0.0 1.0 0.00 0.16 0.00 94 1017.2
20260509234554 50 0 0.0 1.0 0.00 0.16 0.00 94 1017.2
20260509234049 51 0 0.0 0.0 0.00 0.16 0.00 93 1017.1
20260509233551 51 0 0.0 1.0 0.00 0.16 0.00 93 1017.3
20260509233051 51 0 0.0 1.0 0.00 0.16 0.00 93 1017.3
20260509232548 51 0 0.0 1.0 0.00 0.16 0.00 93 1017.2
20260509232048 51 0 0.0 0.0 0.00 0.16 0.00 93 1017.3
20260509231552 51 0 0.0 0.0 0.00 0.16 0.00 93 1017.3
20260509231048 52 0 0.0 0.0 0.00 0.16 0.00 93 1017.3
20260509230810 52 0 0.0 0.0 0.00 0.16 0.00 93 1017.1
20260509222553 53 0 0.0 1.0 0.00 0.16 0.00 93 1017.3
20260509222053 53 319 0.0 1.0 0.00 0.16 0.00 93 1017.2
20260509221557 53 319 0.0 1.0 0.00 0.16 0.00 93 1017.4
20260509221051 53 319 0.0 1.0 0.00 0.16 0.00 93 1017.4
20260509220554 53 319 0.0 1.0 0.00 0.16 0.00 92 1017.2
20260509220107 53 319 0.0 1.0 0.00 0.16 0.00 92 1017.3
20260509215553 53 319 0.0 1.0 0.00 0.16 0.16 92 1017.1
20260509215049 54 319 0.0 1.0 0.00 0.16 0.16 92 1017.2
20260509214603 54 0 0.0 2.0 0.00 0.16 0.16 92 1017.1
20260509214048 54 319 0.0 2.0 0.00 0.16 0.16 92 1017.0
20260509213553 54 319 1.0 2.0 0.00 0.16 0.16 92 1017.0
20260509213122 54 0 0.0 3.0 0.00 0.16 0.16 92 1017.0
20260509212549 54 0 1.0 4.0 0.00 0.16 0.16 92 1016.9
20260509212052 54 310 1.0 4.0 0.00 0.16 0.16 92 1017.1
20260509211554 54 313 1.0 4.0 0.00 0.16 0.16 92 1017.0
20260509211049 54 316 2.0 5.0 0.00 0.16 0.16 91 1017.0
20260509210549 55 315 1.0 5.0 0.00 0.16 0.16 91 1017.0
20260509210107 55 302 3.0 5.0 0.00 0.16 0.16 91 1017.0
20260509205549 55 303 2.0 6.0 0.00 0.16 0.16 91 1016.8
20260509205048 55 304 2.0 6.0 0.00 0.16 0.16 91 1016.9
20260509204611 55 315 2.0 5.0 0.00 0.16 0.16 91 1016.8
20260509204053 55 316 2.0 5.0 0.00 0.16 0.16 91 1016.8
20260509203553 55 294 3.0 6.0 0.00 0.16 0.16 91 1016.8
20260509203059 55 305 4.0 6.0 0.00 0.16 0.16 91 1016.6
20260509202549 55 310 3.0 7.0 0.00 0.16 0.16 91 1016.6
20260509202049 55 314 4.0 7.0 0.00 0.16 0.16 91 1016.5
20260509201552 55 289 4.0 6.0 0.00 0.16 0.16 90 1016.4
20260509201051 56 316 2.0 5.0 0.00 0.16 0.16 90 1016.3
20260509200552 56 0 0.0 2.0 0.00 0.16 0.16 90 1016.2
20260509200100 56 0 0.0 2.0 0.00 0.16 0.16 90 1016.5
20260509195551 56 0 0.0 3.0 0.00 0.16 0.16 90 1016.2
20260509195052 56 61 1.0 3.0 0.00 0.16 0.16 90 1016.2
20260509194600 56 60 1.0 3.0 0.00 0.16 0.16 89 1016.0
20260509194052 56 0 0.0 2.0 0.00 0.16 0.16 89 1016.0
20260509193549 56 61 0.0 2.0 0.00 0.16 0.16 89 1015.8
20260509193126 56 0 1.0 5.0 0.00 0.16 0.16 88 1015.6
20260509192550 57 60 1.0 5.0 0.00 0.16 0.16 88 1015.5
20260509192048 57 39 0.0 5.0 0.00 0.16 0.16 87 1015.4
20260509191551 57 79 2.0 7.0 0.00 0.16 0.16 86 1015.5
20260509191052 58 73 3.0 7.0 0.00 0.16 0.16 85 1015.2
20260509190550 58 54 4.0 6.0 0.00 0.16 0.16 84 1015.4
20260509190052 58 63 2.0 6.0 0.00 0.16 0.16 84 1015.2
20260509185548 58 78 3.0 8.0 0.00 0.16 0.16 84 1015.2
20260509185048 58 69 3.0 9.0 0.00 0.16 0.16 85 1015.1
20260509184555 58 127 4.0 9.0 0.00 0.16 0.16 85 1015.0
20260509184052 58 107 3.0 8.0 0.00 0.16 0.16 86 1014.9
20260509183549 58 15 1.0 6.0 0.00 0.16 0.16 88 1014.9
20260509183326 58 296 1.0 6.0 0.00 0.16 0.16 88 1014.6
20260509182552 58 306 1.0 6.0 0.00 0.16 0.16 87 1014.6
20260509182048 58 350 2.0 6.0 0.00 0.16 0.16 87 1014.6
20260509181559 58 287 2.0 5.0 0.00 0.16 0.16 86 1014.5
20260509181049 58 293 1.0 5.0 0.00 0.16 0.16 85 1014.5
20260509180549 58 315 1.0 4.0 0.00 0.16 0.16 85 1014.3
20260509180053 58 315 2.0 5.0 0.00 0.16 0.16 85 1014.1
20260509175552 58 307 3.0 5.0 0.00 0.16 0.16 85 1014.2
20260509175048 58 299 3.0 7.0 0.00 0.16 0.16 85 1014.3
20260509174552 58 358 2.0 7.0 0.00 0.16 0.16 85 1014.1
20260509174050 58 304 4.0 6.0 0.00 0.16 0.16 85 1014.3
20260509173548 58 339 2.0 6.0 0.02 0.16 0.16 85 1014.2